weather.gov     
National Weather Service

Weather Roundup
NWS Homepage
This page is being discontinued on March 12, 2014.
The same data is available at this site. Please update your bookmarks.
Thank you, and we apologize for the inconvenience.
Please send an email to SR-SRH.Webmaster@noaa.gov with any concerns.


Current Version
Previous Version:    01  02  03  04  05  06  07  08  09  10  11  12  13  14  15  16  17  18  19  20  21  22  23  24  25  26  27  28  29  30  
   31  32  33  34  35  36  37  38  39  40  41  42  43  44  45  46  47  48  49  50  51  52  53  54  55  56  57  58  59  60  
[Printable]
137
NZUS59 KLOT 260510
HRRLOT

CHICAGO AREA WEATHER ROUNDUP
NATIONAL WEATHER SERVICE CHICAGO/ROMEOVILLE IL
1200 AM CDT SUN OCT 26 2014

NOTE: "FAIR" INDICATES FEW OR NO CLOUDS BELOW 12,000 FEET WITH NO
SIGNIFICANT WEATHER AND/OR OBSTRUCTIONS TO VISIBILITY.

* THESE STATIONS ARE NOT UNDER NWS QUALITY CONTROL. THEY ALSO MAY NOT
  REPORT WEATHER SUCH AS PRECIPITATION OR FOG.

ILZ005-006-012>014-019>023-260600-
NORTHEAST ILLINOIS

CITY           SKY/WX    TMP DP  RH WIND       PRES   REMARKS
OHARE          CLEAR     51  30  44 W6        29.97S
MIDWAY         CLEAR     54  30  40 NW6       29.98R
AURORA         CLEAR     43  32  65 NW6       30.00S
LANSING*       CLEAR     54  30  40 NW5       29.98R
JOLIET*        CLEAR     47  33  57 CALM      29.99S
WAUKEGAN       CLEAR     51  28  41 W6        29.96S
DUPAGE AIRPORT CLEAR     50  29  44 NW7       29.99R
WHEELING       CLEAR     55  27  34 NW10      29.99R
KANKAKEE*      CLEAR     46  36  68 W3        30.00R
MORRIS*        CLEAR     43  36  77 NW6       29.99S
LEWIS AIRPORT* CLEAR     46  33  59 NW7       29.99S
NORTHERLY IS     N/A     59  27  29 W12         N/A
$$

WIZ051-052-058>065-066-070>072-260600-
SOUTHEAST WISCONSIN

CITY           SKY/WX    TMP DP  RH WIND       PRES   REMARKS
MILWAUKEE      CLEAR     53  27  36 NW9       29.95S
KENOSHA*       CLEAR     49  30  48 W8        29.96S
RACINE*        CLEAR     52  28  39 W9        29.96F
BURLINGTON     CLEAR     50  27  42 W7        29.97S
WAUKESHA       CLEAR     43  30  61 W8        29.97S
WEST BEND      CLEAR     48  27  43 W8        29.95S
$$

INZ001>003-010>013-019-020-260600-
NORTHWEST INDIANA

CITY           SKY/WX    TMP DP  RH WIND       PRES   REMARKS
GARY*          CLEAR     58  27  29 NW10      29.97S
MICHIGAN CITY* NOT AVBL
RENSSELAER*    NOT AVBL
VALPARAISO     CLEAR     57  30  35 NW9       29.96S
$$

LMZ740>746-260600-
SOUTHERN LAKE MICHIGAN

STATION/POSITION TIME  SKY/WX   TEMP WIND        PRES    VSBY
                                AIR  DIR/SP/G
                 (UTC)          (F)  (DEG/KT/KT) (MB)    (MI)
HARRISON CRIB    0400            59  310/ 14/ 18   N/A
BURNHAM HARBOR   0500            58  280/ 10/ 16   N/A
CALUMET HARBOR   0500            57  290/  3/  6 1013.7F
BURNS HARBOR     NOT AVBL
MICHIGAN CITY    0500            58  300/ 16/ 18   N/A
$$

ABBREVIATIONS USED IN REMARKS
   TC - TEMPERATURE IN CELSIUS
  WCI - WIND CHILL INDEX
   HX - HEAT INDEX
  VSB - VISIBILITY
$$




U.S. Dept. of Commerce
NOAA National Weather Service
1325 East West Highway
Silver Spring, MD 20910
E-mail: w-nws.webmaster@noaa.gov
Page last modified: May 16, 2007
NATIONAL WEATHER SERVICE: for Safety, for Work, for Fun - FOR LIFE